This is the latest recevied weather packets stored in our database for station/object KB7KFC-3. If no packets are shown the sender has not sent any weather packets the latest 10 day(s).
| Time | Temp. | Humidity | Pressure | Rain* | Wind** | Luminosity | Snow |
|---|---|---|---|---|---|---|---|
| 1777836664 | 33.89° C | 16% | 1009.9 hPa | 0 mm | - | - | - |
| 1777836485 | 33.89° C | 15% | 1010 hPa | 0 mm | - | - | - |
| 1777836305 | 33.89° C | 15% | 1010 hPa | 0 mm | - | - | - |
| 1777836125 | 33.89° C | 17% | 1010.1 hPa | 0 mm | - | - | - |
| 1777835945 | 33.33° C | 17% | 1010.2 hPa | 0 mm | - | - | - |
| 1777835766 | 33.33° C | 16% | 1010.1 hPa | 0 mm | - | - | - |
| 1777835584 | 33.33° C | 16% | 1010.3 hPa | 0 mm | - | - | - |
| 1777835404 | 32.78° C | 17% | 1010.3 hPa | 0 mm | - | - | - |
| 1777835224 | 32.78° C | 16% | 1010.4 hPa | 0 mm | - | - | - |
| 1777835044 | 32.78° C | 16% | 1010.4 hPa | 0 mm | - | - | - |
| 1777834865 | 32.78° C | 15% | 1010.4 hPa | 0 mm | - | - | - |
| 1777834684 | 32.78° C | 19% | 1010.4 hPa | 0 mm | - | - | - |
| 1777834504 | 32.78° C | 16% | 1010.4 hPa | 0 mm | - | - | - |
| 1777834325 | 32.78° C | 16% | 1010.5 hPa | 0 mm | - | - | - |
| 1777834144 | 32.22° C | 17% | 1010.5 hPa | 0 mm | - | - | - |
| 1777833965 | 32.22° C | 17% | 1010.5 hPa | 0 mm | - | - | - |
| 1777833785 | 32.22° C | 17% | 1010.6 hPa | 0 mm | - | - | - |
| 1777833605 | 32.22° C | 17% | 1010.6 hPa | 0 mm | - | - | - |
| 1777833424 | 32.22° C | 17% | 1010.5 hPa | 0 mm | - | - | - |
| 1777833246 | 32.22° C | 17% | 1010.5 hPa | 0 mm | - | - | - |
| 1777833065 | 32.22° C | 17% | 1010.5 hPa | 0 mm | - | - | - |
| 1777832885 | 32.22° C | 18% | 1010.7 hPa | 0 mm | - | - | - |
| 1777832704 | 32.22° C | 18% | 1010.8 hPa | 0 mm | - | - | - |
| 1777832525 | 32.22° C | 21% | 1010.8 hPa | 0 mm | - | - | - |
| 1777832344 | 32.22° C | 21% | 1010.8 hPa | 0 mm | - | - | - |
* Rain latest hour (hover to see other rain measurements)
** Current wind speed in m/s (hover to see current wind gust speed)